STARLINK-35298 (65842 NORAD) Tracking and Keplerian Element Data

This shows tracking and keplerian element data for the satellite.

Feedback or suggestion? Click here.




ElementValue
Catalog65842
NameSTARLINK-35298
Epoch Orbit1253
Epoch Day354.01039925
Epoch Year2025
RAAN98.4778
Inclination53.1614
Eccentricity0.0001284
Argument of Perigee88.4604
Mean Anonmoly271.6544
Mean Motion15.30212189
Decay Rate0.00015967
L11 65842U 25221V 25354.01039925 .00015967 00000+0 54986-3 0 9997
L22 65842 53.1614 98.4778 0001284 88.4604 271.6544 15.30212189 12537



Live tracking and technical data element details for STARLINK-35298 (NORAD 65842). STARLINK-35298 can be tracked NOW for your location showing map with azimuth and elevation plus other details from your city location.







IsCatalogInMostPopularTable: catalog: 65842, numindb: 9
Update: records affected: 1



GetName: 65842 STARLINK-35298

Hit Count: updated at: Sat, 11 Apr 2026 21:13:27 GMT